[[{"header":{"parameterUnit":"m.s-1","parameterCategory":1,"la1":30.2991,"la2":30.254,"lo1":-89.0895,"lo2":-89.0444,"dy":0.0017,"dx":0.0017,"nx":28,"ny":28,"refTime":"2025-03-16T21:00:00:Z","depth":0,"parameterNumber":2,"parameterNumberName":"U-component_of_WINDS"},"data":[0,0,0,0,0,0,0,0,0,0,0,0,0,0,0,0,0,0,0,0,0,0,0,0,0,0,0,0,0,0,0,0,0,0,0,0,0,0,0,0,0,0,0,0,0,0,0,0,0,0,0,0,0,0,0,0,0,0,4.8988,4.899,0,4.9135,4.9137,4.9139,4.91,4.9097,4.9094,4.9091,4.9243,4.925,4.9256,0,0,0,0,0,0,0,0,0,0,0,0,0,4.8677,4.8682,4.8988,4.899,4.8992,4.9135,4.9137,4.9139,4.91,4.9097,4.9093,4.909,4.9241,4.9249,4.9257,0,0,0,0,0,0,0,0,0,0,0,0,0,4.8817,4.8684,4.8988,4.899,4.8991,4.9135,4.9137,4.914,4.9101,4.9096,4.9092,4.9088,4.9238,4.9248,4.9258,4.9409,0,0,4.9289,4.9294,0,0,0,0,0,0,0,0,4.8809,4.8828,4.8988,4.899,4.8992,4.9095,4.9083,4.923,4.9102,4.9059,4.9091,4.9086,4.9197,4.9211,4.9248,4.9416,4.9423,4.929,4.9296,4.9301,4.9304,0,0,0,0,0,0,0,4.8799,4.8822,4.9046,4.899,4.8993,4.8984,4.8999,4.9111,4.9151,4.9063,4.906,4.9078,4.9198,4.9238,4.9251,4.9425,4.929,4.9299,4.9305,4.9309,4.9728,4.9733,0,0,0,0,0,0,4.8787,4.8814,4.9042,4.9051,4.8887,4.8993,4.901,4.9066,4.915,4.9158,4.9082,4.9076,4.9223,4.9239,4.9256,4.9441,4.9301,4.931,4.9316,4.9723,4.9729,4.9735,0,0,0,0,0,0,4.8781,4.8808,4.9036,4.8932,4.896,4.9003,4.9067,4.9071,4.9112,4.9164,4.9172,4.9115,4.922,4.9242,4.9372,4.9445,4.9315,4.9324,4.9717,4.9725,4.9732,4.981,0,0,0,0,0,0,4.8772,4.8806,4.8863,4.8933,4.8966,4.9148,4.9071,4.9077,4.9129,4.9123,4.9198,4.9206,4.9218,4.9357,4.9382,4.9457,4.9332,4.9711,4.9721,4.973,4.9801,4.9819,4.9835,0,0,0,0,0,4.8761,4.8879,4.8866,4.8894,4.9038,4.9153,4.9171,4.9182,4.9135,4.9194,4.9228,4.9204,4.9433,4.9371,4.9399,4.9478,4.9706,4.9718,4.9729,4.9793,4.9815,4.9834,0,0,0,0,0,0,4.8815,4.8888,4.8874,4.9018,4.908,4.9146,4.9219,4.9205,4.9281,4.9272,4.9284,4.9301,4.9434,4.9469,4.9398,4.963,4.9563,4.9581,4.9602,4.9624,4.9641,4.963,4.934,0,0,0,0,0,4.8844,4.8931,4.8989,4.911,4.9142,4.9176,4.9226,4.923,4.9294,4.932,4.9363,4.9427,4.9514,4.9571,4.9653,4.9806,4.9823,4.9874,4.9891,4.9905,4.992,5.0005,5.003,4.9772,4.9772,4.9772,0,0,4.8904,4.8955,4.9008,4.9123,4.9171,4.9261,4.9198,4.9295,4.9363,4.9335,4.946,4.9495,4.9567,4.971,4.9775,4.9743,4.9995,4.9919,4.9929,4.9937,5.002,5.0044,5.0066,4.978,4.9778,4.9777,0,0,4.9061,4.9106,4.9213,4.9263,4.9337,4.9359,4.9385,4.9454,4.9476,4.9603,4.9584,4.9665,4.9814,4.9867,4.9913,5.0093,5.0074,5.0119,5.0207,5.0291,5.0311,5.0329,5.0395,5.0418,5.0134,5.0134,5.0134,0,4.9126,4.9261,4.927,4.9371,4.9423,4.9401,4.9511,4.9559,4.9656,4.9693,4.9656,4.9844,4.9891,5.0047,5.0091,5.0128,5.016,5.0111,5.0307,5.0326,5.0343,5.0406,5.043,5.0139,5.0139,5.0138,5.0138,0,4.9339,4.9433,4.9511,4.9606,4.9666,4.9771,4.9798,4.9858,4.9857,4.9884,5.0015,5.007,5.0165,5.0202,5.0202,5.0359,5.0338,5.0304,5.0237,5.0372,5.0432,5.0456,5.0147,5.0145,5.0143,5.0142,0,0,4.9532,4.9633,4.9661,4.9705,4.9786,4.986,4.9964,5.0057,5.011,5.0178,5.0267,5.0395,5.0365,5.0418,5.0424,5.0497,5.0638,5.0455,5.0456,5.0488,5.0818,5.0843,5.0871,5.0626,5.0631,5.0635,5.0812,0,4.9697,4.988,4.9893,5.0059,5.0148,5.013,5.0222,5.0282,5.031,5.039,5.0422,5.0513,5.0465,5.0498,5.0569,5.0606,5.0705,5.0593,5.0711,5.0715,5.0694,5.0901,5.0928,5.1093,5.0835,5.0839,5.0842,0,4.9912,4.9988,5.0163,5.0234,5.0272,5.0354,5.0441,5.0517,5.0586,5.0602,5.0663,5.0659,5.0768,5.0698,5.085,5.0774,5.0823,5.0848,5.0855,5.0867,5.0787,5.092,5.1145,5.1171,5.0878,5.0875,5.0873,0,5.0038,5.0184,5.0308,5.0346,5.0431,5.0489,5.0528,5.0593,5.0648,5.0725,5.0762,5.085,5.0899,5.0969,5.099,5.0936,5.1142,5.1073,5.116,5.116,5.1204,5.1201,5.1442,5.1235,5.1234,5.1234,5.1233,0,5.022,5.0329,5.0366,5.0442,5.0564,5.0579,5.0699,5.0734,5.0793,5.0877,5.0867,5.0947,5.0969,5.1054,5.1071,5.1196,5.1217,5.1234,5.1238,5.1236,5.1234,5.1269,5.1258,5.124,5.1239,5.1238,5.1236,0,5.0381,5.041,5.0544,5.0615,5.0635,5.0722,5.0783,5.0858,5.0885,5.0992,5.1018,5.1062,5.1161,5.1189,5.1307,5.1319,5.1466,5.1458,5.1443,5.1443,5.1529,5.1521,5.1801,5.1839,5.1606,5.1608,5.161,0,5.0496,5.0579,5.0659,5.0715,5.0756,5.0845,5.0902,5.0921,5.0981,5.1068,5.1133,5.123,5.1309,5.1469,5.1512,5.1603,5.1599,5.1691,5.1612,5.1609,5.1602,5.1597,5.1607,5.1705,5.1708,5.171,5.1711,0,5.0698,5.0708,5.0791,5.088,5.0948,5.1019,5.1087,5.1133,5.1162,5.123,5.1331,5.1393,5.1515,5.1613,5.1706,5.1747,5.1736,5.1736,5.1761,5.176,5.1748,5.1758,5.1484,5.1729,5.1728,5.1726,5.1725,5.1725,5.084,5.0914,5.0982,5.1075,5.1128,5.1193,5.1267,5.1304,5.1389,5.1489,5.1496,5.1606,5.1676,5.18,5.1846,5.1934,5.1907,5.1943,5.1952,5.1961,5.1969,5.1734,5.195,5.195,5.1949,5.1949,5.1949,0,5.1042,5.1086,5.1171,5.1267,5.1341,5.1323,5.1398,5.1461,5.1558,5.1624,5.1703,5.1821,5.1916,5.1968,5.2063,5.2124,5.2121,5.2148,5.2145,5.2155,5.1987,5.1956,5.2149,5.2149,5.2149,5.2149,5.2149,5.2149,5.1156,5.1281,5.1301,5.1453,5.1496,5.1603,5.1648,5.1708,5.1761,5.1893,5.1972,5.2005,5.2066,5.2167,5.2254,5.2267,5.2303,5.2334,5.2344,5.2187,5.2166,5.2147,5.2118,5.2342,5.2342,5.2505,5.2507,5.2508]},{"header":{"parameterUnit":"m.s-1","parameterCategory":1,"la1":30.2991,"la2":30.254,"lo1":-89.0895,"lo2":-89.0444,"dy":0.0017,"dx":0.0017,"nx":28,"ny":28,"refTime":"2025-03-16T21:00:00:Z","depth":0,"parameterNumber":3,"parameterNumberName":"V-component_of_WINDS"},"data":[0,0,0,0,0,0,0,0,0,0,0,0,0,0,0,0,0,0,0,0,0,0,0,0,0,0,0,0,0,0,0,0,0,0,0,0,0,0,0,0,0,0,0,0,0,0,0,0,0,0,0,0,0,0,0,0,0,0,-6.1206,-6.1209,0,-6.1415,-6.1418,-6.142,-6.1387,-6.1383,-6.138,-6.1376,-6.1591,-6.16,-6.1609,0,0,0,0,0,0,0,0,0,0,0,0,0,-6.0781,-6.0789,-6.1206,-6.1209,-6.1212,-6.1415,-6.1418,-6.1421,-6.1388,-6.1383,-6.1379,-6.1375,-6.1588,-6.1599,-6.161,0,0,0,0,0,0,0,0,0,0,0,0,0,-6.0975,-6.0791,-6.1206,-6.1219,-6.1223,-6.1414,-6.1418,-6.1422,-6.1389,-6.1383,-6.1378,-6.1373,-6.1585,-6.1598,-6.1611,-6.1803,0,0,-6.1653,-6.1659,0,0,0,0,0,0,0,0,-6.0964,-6.0991,-6.1215,-6.1219,-6.1223,-6.137,-6.1347,-6.1549,-6.139,-6.1326,-6.1376,-6.137,-6.1522,-6.154,-6.1591,-6.1813,-6.1822,-6.1654,-6.1662,-6.1668,-6.1672,0,0,0,0,0,0,0,-6.0951,-6.0982,-6.1289,-6.1218,-6.1223,-6.1216,-6.1238,-6.1385,-6.1451,-6.1331,-6.1329,-6.1354,-6.1523,-6.1578,-6.1596,-6.1825,-6.1654,-6.1666,-6.1674,-6.1679,-6.2217,-6.2223,0,0,0,0,0,0,-6.0933,-6.0971,-6.1282,-6.1295,-6.1078,-6.1228,-6.1252,-6.1328,-6.145,-6.1463,-6.1358,-6.1352,-6.1558,-6.158,-6.1604,-6.1838,-6.1668,-6.1681,-6.1689,-6.2211,-6.2219,-6.2225,0,0,0,0,0,0,-6.0924,-6.0961,-6.1274,-6.1133,-6.1172,-6.1241,-6.1326,-6.1335,-6.139,-6.1471,-6.1482,-6.1403,-6.1554,-6.1584,-6.1754,-6.1845,-6.1687,-6.1699,-6.2204,-6.2214,-6.2222,-6.2307,0,0,0,0,0,0,-6.0912,-6.0958,-6.1031,-6.1135,-6.118,-6.1421,-6.1332,-6.1343,-6.1414,-6.1407,-6.1515,-6.1528,-6.1552,-6.1734,-6.1768,-6.1861,-6.171,-6.2196,-6.2208,-6.2219,-6.2296,-6.2318,-6.2336,0,0,0,0,0,-6.0897,-6.1046,-6.1035,-6.1073,-6.1272,-6.1426,-6.1452,-6.1477,-6.1421,-6.1495,-6.1547,-6.1524,-6.1829,-6.1752,-6.1789,-6.1888,-6.2191,-6.2205,-6.2218,-6.2287,-6.2314,-6.2336,0,0,0,0,0,0,-6.0951,-6.106,-6.1049,-6.1235,-6.1322,-6.142,-6.1514,-6.1503,-6.1607,-6.1597,-6.1623,-6.1648,-6.1821,-6.1871,-6.1783,-6.2081,-6.2002,-6.2024,-6.2042,-6.2068,-6.2087,-6.2072,-6.1721,0,0,0,0,0,-6.0985,-6.11,-6.1189,-6.1346,-6.139,-6.1445,-6.1513,-6.1525,-6.1615,-6.1651,-6.1716,-6.1805,-6.1921,-6.1997,-6.2108,-6.2303,-6.2327,-6.239,-6.2409,-6.2425,-6.2445,-6.2554,-6.2584,-6.2271,-6.2271,-6.227,0,0,-6.1056,-6.113,-6.1201,-6.1359,-6.1427,-6.1547,-6.1476,-6.1605,-6.1695,-6.1671,-6.1836,-6.1886,-6.1988,-6.2172,-6.2256,-6.2219,-6.2536,-6.2443,-6.2455,-6.2466,-6.2571,-6.2601,-6.2627,-6.228,-6.2278,-6.2277,0,0,-6.1247,-6.1313,-6.1452,-6.1522,-6.1627,-6.1663,-6.1696,-6.1797,-6.183,-6.1995,-6.1981,-6.2088,-6.2287,-6.2361,-6.2424,-6.2645,-6.2629,-6.2681,-6.2786,-6.2892,-6.2917,-6.2939,-6.302,-6.3048,-6.2699,-6.2699,-6.27,0,-6.1322,-6.1501,-6.1525,-6.1657,-6.1728,-6.1712,-6.1854,-6.1921,-6.2056,-6.2106,-6.2062,-6.2313,-6.238,-6.2583,-6.2637,-6.2688,-6.2728,-6.2669,-6.2911,-6.2934,-6.2954,-6.3032,-6.3062,-6.2705,-6.2705,-6.2704,-6.2703,0,-6.159,-6.1715,-6.1814,-6.1946,-6.2028,-6.2164,-6.2209,-6.229,-6.2295,-6.2336,-6.2507,-6.2587,-6.2715,-6.2763,-6.2769,-6.2968,-6.2942,-6.2905,-6.2826,-6.299,-6.3063,-6.3093,-6.2713,-6.2711,-6.271,-6.2708,0,0,-6.182,-6.1964,-6.2001,-6.2062,-6.2177,-6.2274,-6.241,-6.2536,-6.2605,-6.27,-6.2816,-6.2986,-6.2953,-6.3025,-6.3039,-6.3132,-6.3306,-6.3084,-6.3087,-6.3124,-6.3532,-6.356,-6.3594,-6.3295,-6.3301,-6.3305,-6.3524,0,-6.2023,-6.2264,-6.229,-6.2505,-6.2622,-6.261,-6.2729,-6.2813,-6.2856,-6.2962,-6.3009,-6.313,-6.3076,-6.312,-6.3211,-6.3265,-6.3388,-6.3249,-6.3405,-6.341,-6.3382,-6.3632,-6.3662,-6.3865,-6.3553,-6.3557,-6.3561,0,-6.2292,-6.2395,-6.2622,-6.2724,-6.2774,-6.288,-6.2999,-6.31,-6.3196,-6.322,-6.3302,-6.3305,-6.3447,-6.3363,-6.356,-6.3465,-6.3531,-6.3567,-6.3575,-6.3592,-6.3496,-6.3658,-6.393,-6.3961,-6.3606,-6.3602,-6.3599,0,-6.244,-6.2636,-6.2797,-6.2849,-6.2971,-6.3046,-6.31,-6.3191,-6.3266,-6.3369,-6.3419,-6.3537,-6.3603,-6.3695,-6.3731,-6.3666,-6.3928,-6.3845,-6.3953,-6.3953,-6.401,-6.4006,-6.4298,-6.4049,-6.4049,-6.4048,-6.4048,0,-6.2665,-6.2805,-6.2866,-6.2965,-6.3123,-6.3152,-6.3307,-6.3357,-6.3439,-6.3549,-6.3545,-6.3649,-6.3689,-6.38,-6.3828,-6.3989,-6.4018,-6.4043,-6.4049,-6.4045,-6.4042,-6.4089,-6.4076,-6.4056,-6.4055,-6.4053,-6.4052,0,-6.2857,-6.2903,-6.3079,-6.318,-6.3209,-6.3321,-6.3407,-6.3505,-6.3546,-6.3686,-6.372,-6.3786,-6.3917,-6.3961,-6.4118,-6.4138,-6.4326,-6.4319,-6.4293,-6.4295,-6.4401,-6.4392,-6.4735,-6.4783,-6.4501,-6.4503,-6.4505,0,-6.2999,-6.3106,-6.3219,-6.3293,-6.335,-6.3469,-6.3545,-6.3578,-6.3659,-6.3777,-6.3861,-6.399,-6.4096,-6.4305,-6.4367,-6.4489,-6.4486,-6.4598,-6.4504,-6.4497,-6.449,-6.4484,-6.4496,-6.4616,-6.4619,-6.4621,-6.4623,0,-6.3246,-6.3263,-6.3373,-6.3493,-6.3585,-6.368,-6.3773,-6.3833,-6.388,-6.3971,-6.4105,-6.4186,-6.4349,-6.4478,-6.4602,-6.4659,-6.4651,-6.4652,-6.4684,-6.4681,-6.4663,-6.4677,-6.4343,-6.4645,-6.4642,-6.4641,-6.464,-6.4639,-6.3418,-6.3514,-6.3609,-6.3733,-6.3806,-6.3893,-6.399,-6.4044,-6.4156,-6.4291,-6.4304,-6.4448,-6.4544,-6.471,-6.4773,-6.4888,-6.4856,-6.4902,-6.4914,-6.4925,-6.4934,-6.4644,-6.491,-6.4909,-6.4909,-6.4908,-6.4908,0,-6.3666,-6.3727,-6.3841,-6.3971,-6.4069,-6.4052,-6.4154,-6.4237,-6.4364,-6.4454,-6.4558,-6.4713,-6.4839,-6.4912,-6.5039,-6.5117,-6.5116,-6.5149,-6.5144,-6.5158,-6.4954,-6.4915,-6.5148,-6.5148,-6.5147,-6.5147,-6.5147,-6.5147,-6.3807,-6.397,-6.3999,-6.4199,-6.4259,-6.4401,-6.4461,-6.4542,-6.4614,-6.4787,-6.4892,-6.4938,-6.5022,-6.5155,-6.5271,-6.5289,-6.5337,-6.5373,-6.5389,-6.5197,-6.5172,-6.5149,-6.5112,-6.5383,-6.5383,-6.5584,-6.5586,-6.5587]}]]